Content
SEND FEEDBACK

Daily
Averages
Monthly
Summary
United States of America

LEGGETT, TEXAS


Home > North America > United States > Texas
Elevation: 172 feet     Latitude: 30 44N     Longitude: 094 56W

WEATHER
 
SELECT A DAY
Number of Records: 108,977;   Date Range: 10/20/09 - 4/23/14
 
SHARE

PRINT THIS DATA

[ ← Previous Day ]
WEATHER ALMANAC - JANUARY 31, 2013
[ Next Day → ]
[ °C ]   °F
Weather ElementAverageHighLow
Temperature47.8 °F66.2 °F (2:15 pm)30.2 °F (4:15 am)
Dewpoint29 °F37.4 °F (11:55 pm)19.4 °F (1:35 pm)
Humidity58.5 %100 % (12:35 am)17 % (2:15 pm)
Barometer30.27 in30.32 in (9:15 am)30.22 in (2:35 am)
Wind Speed3.8 mph12.7 mph (10:55 am)
Wind Gust17.3 mph (2:35 pm)
Weather ElementAverage
Visibility10 mi
Wind DirectionESE (109.1 °)

Weather ElementTotal
Precipitation---
Heating Degree Days16.8 (Base 65)
Averaged from 69 records on January 31, 2013
WEATHER CONDITIONS BREAKOUT
WIND DIRECTION BREAKOUT
WEATHER BY HOUR - JANUARY 31, 2013
[ °C ]   °F
Local TimeTemperatureDewpointHumidityBarometerVisibilityWind DirectionWind SpeedGust SpeedPrecipitationEventsConditions
12:35 AM32.0 °F32.0 °F100 %30.25 in10.0 miCalmClear
12:55 AM32.0 °F32.0 °F100 %30.24 in10.0 miCalmClear
1:15 AM32.0 °F32.0 °F100 %30.26 in10.0 miCalmClear
1:35 AM32.0 °F32.0 °F100 %30.24 in10.0 miCalmClear
1:55 AM32.0 °F32.0 °F100 %30.24 in10.0 miCalmClear
2:15 AM32.0 °F32.0 °F100 %30.23 in10.0 miCalmClear
2:35 AM32.0 °F30.2 °F93 %30.22 in10.0 miCalmClear
2:55 AM32.0 °F30.2 °F93 %30.23 in10.0 miCalmClear
3:15 AM32.0 °F30.2 °F93 %30.24 in10.0 miCalmClear
3:35 AM32.0 °F30.2 °F93 %30.23 in10.0 miCalmClear
3:55 AM32.0 °F30.2 °F93 %30.23 in10.0 miCalmClear
4:15 AM30.2 °F30.2 °F100 %30.23 in10.0 miCalmClear
4:35 AM32.0 °F30.2 °F93 %30.23 in10.0 miCalmClear
4:55 AM30.2 °F30.2 °F100 %30.22 in10.0 miCalmClear
5:15 AM30.2 °F30.2 °F100 %30.22 in10.0 miCalmClear
5:35 AM30.2 °F30.2 °F100 %30.23 in10.0 miCalmClear
6:15 AM30.2 °F30.2 °F100 %30.25 in10.0 miCalmClear
6:35 AM30.2 °F30.2 °F100 %30.26 in10.0 miCalmClear
6:55 AM30.2 °F28.4 °F93 %30.26 in10.0 miCalmClear
7:15 AM30.2 °F28.4 °F93 %30.27 in10.0 miCalmClear
7:55 AM32.0 °F30.2 °F93 %30.29 in10.0 miCalmClear
8:15 AM33.8 °F32.0 °F93 %30.30 in10.0 miCalmClear
8:35 AM35.6 °F32.0 °F87 %30.30 in10.0 miCalmClear
8:55 AM42.8 °F35.6 °F76 %30.31 in10.0 miSW (230°)4.6 mphClear
9:15 AM46.4 °F33.8 °F62 %30.32 in10.0 miSW (230°)3.5 mphClear
9:35 AM50.0 °F32.0 °F50 %30.32 in10.0 miSSW (210°)5.8 mphClear
9:55 AM53.6 °F32.0 °F44 %30.32 in10.0 miSW (230°)4.6 mphClear
10:15 AM55.4 °F30.2 °F38 %30.32 in10.0 miSouth (190°)9.2 mphClear
10:35 AM57.2 °F26.6 °F31 %30.32 in10.0 miSW (220°)6.9 mphClear
10:55 AM59.0 °F26.6 °F29 %30.32 in10.0 miSouth (190°)12.7 mphClear
11:15 AM60.8 °F26.6 °F27 %30.32 in10.0 miSW (220°)8.1 mphClear
11:35 AM60.8 °F24.8 °F25 %30.31 in10.0 miSSW (200°)9.2 mphClear
11:55 AM60.8 °F23.0 °F23 %30.31 in10.0 miSSW (210°)10.4 mphClear
12:15 PM62.6 °F23.0 °F22 %30.30 in10.0 miSW (220°)9.2 mphClear
12:35 PM62.6 °F21.2 °F20 %30.29 in10.0 miSW (230°)8.1 mphClear
12:55 PM62.6 °F21.2 °F20 %30.28 in10.0 miWest (270°)11.5 mphClear
1:15 PM62.6 °F21.2 °F20 %30.27 in10.0 miSW (220°)10.4 mphClear
1:35 PM64.4 °F19.4 °F18 %30.26 in10.0 miWSW (240°)11.5 mph16.1 mphClear
1:55 PM64.4 °F21.2 °F19 %30.25 in10.0 miSW (220°)9.2 mphClear
2:15 PM66.2 °F19.4 °F17 %30.25 in10.0 miSW (220°)5.8 mphClear
2:35 PM66.2 °F21.2 °F18 %30.25 in10.0 miWSW (240°)12.7 mph17.3 mphClear
2:55 PM66.2 °F19.4 °F17 %30.24 in10.0 miSW (220°)11.5 mph16.1 mphClear
3:15 PM64.4 °F21.2 °F19 %30.24 in10.0 miSSW (200°)10.4 mph16.1 mphClear
3:35 PM64.4 °F21.2 °F19 %30.23 in10.0 miWSW (240°)6.9 mphClear
3:55 PM66.2 °F21.2 °F18 %30.23 in10.0 miSW (230°)6.9 mphClear
4:15 PM64.4 °F21.2 °F19 %30.23 in10.0 miWSW (240°)5.8 mphClear
4:35 PM64.4 °F23.0 °F21 %30.23 in10.0 miSW (220°)9.2 mphClear
4:55 PM64.4 °F23.0 °F21 %30.22 in10.0 miSSW (210°)9.2 mphClear
5:15 PM62.6 °F24.8 °F24 %30.22 in10.0 miSSW (210°)4.6 mphClear
5:35 PM60.8 °F26.6 °F27 %30.22 in10.0 miSouth (190°)5.8 mphClear
5:55 PM57.2 °F26.6 °F31 %30.23 in10.0 miSouth (190°)3.5 mphClear
6:15 PM55.4 °F30.2 °F38 %30.23 in10.0 miSSE (160°)4.6 mphClear
6:35 PM53.6 °F32.0 °F44 %30.23 in10.0 miSSE (150°)3.5 mphClear
6:55 PM51.8 °F32.0 °F47 %30.24 in10.0 miCalmClear
7:15 PM50.0 °F33.8 °F54 %30.25 in10.0 miCalmClear
7:35 PM50.0 °F33.8 °F54 %30.26 in10.0 miCalmClear
7:55 PM50.0 °F33.8 °F54 %30.27 in10.0 miSSE (160°)4.6 mphClear
8:15 PM50.0 °F33.8 °F54 %30.28 in10.0 miSSE (160°)3.5 mphClear
8:35 PM50.0 °F35.6 °F58 %30.30 in10.0 miSSW (200°)5.8 mphClear
8:55 PM50.0 °F33.8 °F54 %30.31 in10.0 miSouth (190°)4.6 mphClear
9:15 PM50.0 °F33.8 °F54 %30.31 in10.0 miSouth (170°)3.5 mphClear
9:35 PM48.2 °F32.0 °F54 %30.31 in10.0 miCalmClear
9:55 PM46.4 °F35.6 °F66 %30.31 in10.0 miCalmClear
10:15 PM46.4 °F35.6 °F66 %30.31 in10.0 miCalmClear
10:35 PM46.4 °F33.8 °F62 %30.31 in10.0 miSSW (200°)3.5 mphClear
10:55 PM44.6 °F33.8 °F66 %30.31 in10.0 miCalmClear
11:15 PM44.6 °F33.8 °F66 %30.31 in10.0 miCalmClear
11:35 PM42.8 °F35.6 °F76 %30.31 in10.0 miCalmClear
11:55 PM44.6 °F37.4 °F76 %30.31 in10.0 miCalmClear
Hourly data recorded from K6R3, located 26.77 miles away from Leggett, Texas







STORIES FROM OUR PARTNERS